| time (UTC) | temp F | wind direction | speed MPH | gust MPH | rain 1hr in | rain 24hr in | rain mn in | humidity % | barometer mb |
| 20260505130251 | 66 | 24 | 4.0 | 10.0 | 0.00 | 0.00 | 0.00 | 61 | 1011.6 |
| 20260505124731 | 65 | 86 | 4.0 | 10.0 | 0.00 | 0.00 | 0.00 | 64 | 1011.3 |
| 20260505124228 | 65 | 84 | 5.0 | 12.0 | 0.00 | 0.00 | 0.00 | 63 | 1011.2 |
| 20260505123930 | 65 | 70 | 4.0 | 12.0 | 0.00 | 0.00 | 0.00 | 62 | 1011.2 |
| 20260505123144 | 65 | 82 | 3.0 | 8.0 | 0.00 | 0.00 | 0.00 | 64 | 1011.1 |
| 20260505122850 | 64 | 68 | 3.0 | 8.0 | 0.00 | 0.00 | 0.00 | 64 | 1011.2 |
| 20260505122115 | 64 | 44 | 3.0 | 8.0 | 0.00 | 0.00 | 0.00 | 64 | 1011.2 |
| 20260505121615 | 64 | 60 | 3.0 | 8.0 | 0.00 | 0.00 | 0.00 | 64 | 1011.2 |
| 20260505121112 | 63 | 70 | 3.0 | 7.0 | 0.00 | 0.00 | 0.00 | 67 | 1011.3 |
| 20260505120606 | 63 | 41 | 3.0 | 7.0 | 0.00 | 0.00 | 0.00 | 66 | 1011.3 |
| 20260505120328 | 62 | 88 | 2.0 | 6.0 | 0.00 | 0.00 | 0.00 | 67 | 1011.3 |
| 20260505115527 | 62 | 84 | 1.0 | 3.0 | 0.00 | 0.00 | 0.00 | 68 | 1011.3 |
| 20260505115012 | 61 | 70 | 1.0 | 3.0 | 0.00 | 0.00 | 0.00 | 68 | 1011.2 |
| 20260505114510 | 61 | 87 | 1.0 | 4.0 | 0.00 | 0.00 | 0.00 | 69 | 1011.3 |
| 20260505113943 | 60 | 93 | 1.0 | 4.0 | 0.00 | 0.00 | 0.00 | 69 | 1011.2 |
| 20260505113442 | 60 | 86 | 1.0 | 2.0 | 0.00 | 0.00 | 0.00 | 70 | 1011.3 |
| 20260505112924 | 59 | 86 | 0.0 | 2.0 | 0.00 | 0.00 | 0.00 | 71 | 1011.1 |
| 20260505112405 | 58 | 86 | 0.0 | 1.0 | 0.00 | 0.00 | 0.00 | 71 | 1011.2 |
| 20260505111905 | 58 | 86 | 0.0 | 0.0 | 0.00 | 0.00 | 0.00 | 75 | 1011.1 |
| 20260505111353 | 57 | 86 | 0.0 | 0.0 | 0.00 | 0.00 | 0.00 | 76 | 1011.1 |
| 20260505110850 | 56 | 86 | 0.0 | 0.0 | 0.00 | 0.00 | 0.00 | 77 | 1011.3 |
| 20260505110351 | 55 | 86 | 0.0 | 0.0 | 0.00 | 0.00 | 0.00 | 77 | 1011.1 |
| 20260505110124 | 54 | 86 | 0.0 | 0.0 | 0.00 | 0.00 | 0.00 | 77 | 1011.2 |
| 20260505101707 | 54 | 86 | 0.0 | 0.0 | 0.00 | 0.00 | 0.00 | 77 | 1011.1 |
| 20260505101142 | 55 | 86 | 0.0 | 0.0 | 0.00 | 0.00 | 0.00 | 76 | 1011.1 |
| 20260505100613 | 55 | 86 | 0.0 | 0.0 | 0.00 | 0.00 | 0.00 | 75 | 1011.1 |
| 20260505100110 | 55 | 86 | 0.0 | 0.0 | 0.00 | 0.00 | 0.00 | 75 | 1011.3 |
| 20260505095553 | 55 | 86 | 0.0 | 0.0 | 0.00 | 0.00 | 0.00 | 75 | 1011.3 |
| 20260505095043 | 56 | 86 | 0.0 | 0.0 | 0.00 | 0.00 | 0.00 | 74 | 1011.2 |
| 20260505094542 | 56 | 86 | 0.0 | 0.0 | 0.00 | 0.00 | 0.00 | 73 | 1011.3 |
| 20260505094040 | 57 | 86 | 0.0 | 0.0 | 0.00 | 0.00 | 0.00 | 72 | 1011.2 |
| 20260505093514 | 58 | 86 | 1.0 | 2.0 | 0.00 | 0.00 | 0.00 | 71 | 1011.1 |
| 20260505093218 | 58 | 86 | 1.0 | 2.0 | 0.00 | 0.00 | 0.00 | 70 | 1010.9 |
| 20260505092418 | 58 | 84 | 1.0 | 2.0 | 0.00 | 0.00 | 0.00 | 70 | 1010.5 |
| 20260505091914 | 58 | 76 | 1.0 | 3.0 | 0.00 | 0.00 | 0.00 | 70 | 1010.4 |
| 20260505091341 | 58 | 77 | 1.0 | 3.0 | 0.00 | 0.00 | 0.00 | 69 | 1010.4 |
| 20260505090844 | 58 | 77 | 1.0 | 3.0 | 0.00 | 0.00 | 0.00 | 70 | 1010.3 |
| 20260505090335 | 58 | 69 | 1.0 | 4.0 | 0.00 | 0.00 | 0.00 | 70 | 1010.4 |
| 20260505090101 | 58 | 68 | 1.0 | 4.0 | 0.00 | 0.00 | 0.00 | 70 | 1010.2 |
| 20260505085322 | 58 | 76 | 0.0 | 2.0 | 0.00 | 0.00 | 0.00 | 71 | 1010.3 |
| 20260505084818 | 58 | 75 | 1.0 | 2.0 | 0.00 | 0.00 | 0.00 | 71 | 1010.2 |
| 20260505084316 | 58 | 76 | 1.0 | 2.0 | 0.00 | 0.00 | 0.00 | 70 | 1010.2 |
| 20260505083750 | 58 | 75 | 1.0 | 5.0 | 0.00 | 0.00 | 0.00 | 70 | 1010.2 |
| 20260505083224 | 58 | 73 | 2.0 | 6.0 | 0.00 | 0.00 | 0.00 | 70 | 1010.2 |
| 20260505082925 | 58 | 76 | 2.0 | 6.0 | 0.00 | 0.00 | 0.00 | 71 | 1010.3 |
| 20260505082152 | 58 | 79 | 2.0 | 5.0 | 0.00 | 0.00 | 0.00 | 71 | 1010.3 |
| 20260505081649 | 58 | 90 | 2.0 | 6.0 | 0.00 | 0.00 | 0.00 | 71 | 1010.3 |
| 20260505081148 | 58 | 80 | 2.0 | 6.0 | 0.00 | 0.00 | 0.00 | 71 | 1010.3 |
| 20260505080647 | 58 | 77 | 2.0 | 4.0 | 0.00 | 0.00 | 0.00 | 72 | 1010.3 |
| 20260505080149 | 57 | 88 | 2.0 | 3.0 | 0.00 | 0.00 | 0.00 | 72 | 1010.5 |
| 20260505075648 | 57 | 80 | 1.0 | 4.0 | 0.00 | 0.00 | 0.00 | 72 | 1010.5 |
| 20260505075146 | 57 | 91 | 1.0 | 4.0 | 0.00 | 0.00 | 0.00 | 71 | 1010.4 |
| 20260505074639 | 57 | 82 | 2.0 | 3.0 | 0.00 | 0.00 | 0.00 | 70 | 1010.5 |
| 20260505074126 | 57 | 69 | 1.0 | 3.0 | 0.00 | 0.00 | 0.00 | 69 | 1010.4 |
| 20260505073619 | 57 | 74 | 1.0 | 3.0 | 0.00 | 0.00 | 0.00 | 70 | 1010.3 |
| 20260505073116 | 56 | 82 | 0.0 | 2.0 | 0.00 | 0.00 | 0.00 | 70 | 1010.3 |
| 20260505072546 | 57 | 82 | 0.0 | 0.0 | 0.00 | 0.00 | 0.00 | 70 | 1010.3 |
| 20260505072043 | 57 | 82 | 0.0 | 0.0 | 0.00 | 0.00 | 0.00 | 69 | 1010.4 |
| 20260505071514 | 57 | 82 | 0.0 | 2.0 | 0.00 | 0.00 | 0.00 | 68 | 1010.4 |
| 20260505071240 | 58 | 82 | 0.0 | 2.0 | 0.00 | 0.00 | 0.00 | 68 | 1010.3 |
| 20260505071117 | 58 | 82 | 1.0 | 2.0 | 0.00 | 0.00 | 0.00 | 68 | 1010.3 |
| 20260505070006 | 58 | 82 | 0.0 | 0.0 | 0.00 | 0.00 | 0.00 | 68 | 1010.3 |
| 20260505065504 | 58 | 82 | 0.0 | 0.0 | 0.00 | 0.00 | 0.00 | 67 | 1010.3 |
| 20260505065004 | 58 | 82 | 1.0 | 2.0 | 0.00 | 0.00 | 0.00 | 67 | 1010.2 |
| 20260505064501 | 58 | 82 | 1.0 | 2.0 | 0.00 | 0.00 | 0.00 | 67 | 1010.3 |
| 20260505063951 | 58 | 82 | 1.0 | 3.0 | 0.00 | 0.00 | 0.00 | 67 | 1010.3 |
| 20260505063443 | 59 | 82 | 2.0 | 3.0 | 0.00 | 0.00 | 0.00 | 66 | 1010.3 |
| 20260505062942 | 59 | 92 | 2.0 | 6.0 | 0.00 | 0.00 | 0.00 | 66 | 1010.3 |
| 20260505062413 | 59 | 63 | 2.0 | 6.0 | 0.00 | 0.00 | 0.00 | 66 | 1010.4 |
| 20260505061912 | 59 | 75 | 3.0 | 6.0 | 0.00 | 0.00 | 0.00 | 66 | 1010.4 |
| 20260505061631 | 59 | 79 | 3.0 | 6.0 | 0.00 | 0.00 | 0.00 | 65 | 1010.4 |
| 20260505060901 | 59 | 61 | 2.0 | 6.0 | 0.00 | 0.00 | 0.00 | 65 | 1010.3 |
| 20260505060336 | 59 | 40 | 3.0 | 5.0 | 0.00 | 0.00 | 0.00 | 65 | 1010.2 |
| 20260505055834 | 59 | 66 | 2.0 | 5.0 | 0.00 | 0.00 | 0.00 | 66 | 1010.3 |
| 20260505055321 | 59 | 58 | 2.0 | 4.0 | 0.00 | 0.00 | 0.00 | 66 | 1010.3 |
| 20260505054818 | 59 | 71 | 2.0 | 7.0 | 0.00 | 0.00 | 0.00 | 66 | 1010.2 |
| 20260505054254 | 59 | 75 | 2.0 | 7.0 | 0.00 | 0.00 | 0.00 | 66 | 1010.3 |
| 20260505054000 | 59 | 63 | 2.0 | 4.0 | 0.00 | 0.00 | 0.00 | 66 | 1010.3 |
| 20260505053205 | 59 | 76 | 2.0 | 4.0 | 0.00 | 0.00 | 0.00 | 66 | 1010.4 |
| 20260505052640 | 59 | 51 | 2.0 | 5.0 | 0.00 | 0.00 | 0.00 | 66 | 1010.4 |
| 20260505052406 | 59 | 58 | 2.0 | 5.0 | 0.00 | 0.00 | 0.00 | 66 | 1010.4 |
| 20260505051635 | 59 | 57 | 2.0 | 5.0 | 0.00 | 0.00 | 0.00 | 66 | 1010.4 |
| 20260505051357 | 59 | 33 | 3.0 | 7.0 | 0.00 | 0.00 | 0.00 | 65 | 1010.4 |
| 20260505050829 | 59 | 65 | 2.0 | 7.0 | 0.00 | 0.00 | 0.00 | 65 | 1010.6 |
| 20260505041417 | 60 | 37 | 2.0 | 3.0 | 0.00 | 0.00 | 0.00 | 61 | 1010.5 |
| 20260505041134 | 60 | 75 | 1.0 | 4.0 | 0.00 | 0.00 | 0.00 | 60 | 1010.5 |
| 20260505040402 | 60 | 60 | 1.0 | 3.0 | 0.00 | 0.00 | 0.00 | 60 | 1010.4 |
| 20260505035845 | 60 | 57 | 1.0 | 3.0 | 0.00 | 0.00 | 0.00 | 60 | 1010.3 |
| 20260505035341 | 60 | 22 | 1.0 | 4.0 | 0.00 | 0.00 | 0.00 | 59 | 1010.5 |
| 20260505034806 | 60 | 53 | 1.0 | 4.0 | 0.00 | 0.00 | 0.00 | 58 | 1010.5 |
| 20260505034308 | 60 | 51 | 1.0 | 4.0 | 0.00 | 0.00 | 0.00 | 58 | 1010.4 |
| 20260505034037 | 60 | 82 | 1.0 | 4.0 | 0.00 | 0.00 | 0.00 | 58 | 1010.5 |
| 20260505033308 | 61 | 62 | 2.0 | 4.0 | 0.00 | 0.00 | 0.00 | 57 | 1010.5 |
| 20260505032739 | 61 | 55 | 1.0 | 4.0 | 0.00 | 0.00 | 0.00 | 57 | 1010.5 |
| 20260505032235 | 61 | 59 | 1.0 | 4.0 | 0.00 | 0.00 | 0.00 | 57 | 1010.5 |
| 20260505031708 | 61 | 76 | 1.0 | 4.0 | 0.00 | 0.00 | 0.00 | 56 | 1010.6 |
| 20260505031138 | 61 | 79 | 1.0 | 3.0 | 0.00 | 0.00 | 0.00 | 55 | 1010.7 |
| 20260505030843 | 61 | 75 | 2.0 | 6.0 | 0.00 | 0.00 | 0.00 | 54 | 1010.6 |
| 20260505030043 | 62 | 82 | 2.0 | 6.0 | 0.00 | 0.00 | 0.00 | 54 | 1010.6 |
| 20260505025544 | 61 | 69 | 1.0 | 5.0 | 0.00 | 0.00 | 0.00 | 54 | 1010.8 |
| 20260505025019 | 62 | 62 | 2.0 | 4.0 | 0.00 | 0.00 | 0.00 | 53 | 1010.8 |
| 20260505024511 | 62 | 70 | 1.0 | 4.0 | 0.00 | 0.00 | 0.00 | 52 | 1010.8 |
| 20260505024011 | 62 | 62 | 1.0 | 2.0 | 0.00 | 0.00 | 0.00 | 52 | 1010.9 |
| 20260505023443 | 62 | 91 | 0.0 | 2.0 | 0.00 | 0.00 | 0.00 | 51 | 1010.8 |
| 20260505023420 | 62 | 91 | 1.0 | 2.0 | 0.00 | 0.00 | 0.00 | 51 | 1010.8 |
| 20260505022421 | 63 | 91 | 1.0 | 2.0 | 0.00 | 0.00 | 0.00 | 50 | 1010.8 |
| 20260505021858 | 63 | 88 | 1.0 | 3.0 | 0.00 | 0.00 | 0.00 | 49 | 1010.8 |
| 20260505021336 | 63 | 82 | 2.0 | 3.0 | 0.00 | 0.00 | 0.00 | 49 | 1010.8 |
| 20260505020826 | 63 | 44 | 1.0 | 3.0 | 0.00 | 0.00 | 0.00 | 50 | 1010.8 |
| 20260505020305 | 63 | 50 | 1.0 | 5.0 | 0.00 | 0.00 | 0.00 | 49 | 1010.9 |
| 20260505015806 | 63 | 35 | 1.0 | 5.0 | 0.00 | 0.00 | 0.00 | 50 | 1010.9 |
| 20260505015245 | 63 | 64 | 1.0 | 4.0 | 0.00 | 0.00 | 0.00 | 49 | 1010.9 |
| 20260505014747 | 63 | 76 | 1.0 | 4.0 | 0.00 | 0.00 | 0.00 | 49 | 1010.8 |
| 20260505014246 | 63 | 86 | 1.0 | 2.0 | 0.00 | 0.00 | 0.00 | 49 | 1010.6 |
| 20260505014016 | 62 | 86 | 1.0 | 2.0 | 0.00 | 0.00 | 0.00 | 49 | 1010.7 |
| 20260505013515 | 62 | 86 | 0.0 | 2.0 | 0.00 | 0.00 | 0.00 | 49 | 1010.7 |
| 20260505012727 | 62 | 86 | 0.0 | 0.0 | 0.00 | 0.00 | 0.00 | 49 | 1010.7 |
| 20260505012501 | 63 | 86 | 0.0 | 0.0 | 0.00 | 0.00 | 0.00 | 49 | 1010.6 |
| 20260505011944 | 63 | 86 | 0.0 | 0.0 | 0.00 | 0.00 | 0.00 | 48 | 1010.6 |
| 20260505011211 | 63 | 86 | 0.0 | 1.0 | 0.00 | 0.00 | 0.00 | 48 | 1010.5 |
| 20260505010710 | 63 | 86 | 0.0 | 1.0 | 0.00 | 0.00 | 0.00 | 48 | 1010.5 |
| 20260505010155 | 64 | 86 | 0.0 | 2.0 | 0.00 | 0.00 | 0.00 | 47 | 1010.2 |
| 20260505005901 | 64 | 86 | 0.0 | 2.0 | 0.00 | 0.00 | 0.00 | 46 | 1010.2 |
| 20260505005111 | 64 | 78 | 0.0 | 2.0 | 0.00 | 0.00 | 0.00 | 46 | 1010.2 |
| 20260505004841 | 64 | 78 | 0.0 | 2.0 | 0.00 | 0.00 | 0.00 | 46 | 1010.1 |
| 20260505004047 | 64 | 78 | 0.0 | 4.0 | 0.00 | 0.00 | 0.00 | 46 | 1010.2 |
| 20260505003548 | 65 | 70 | 1.0 | 4.0 | 0.00 | 0.00 | 0.00 | 45 | 1010.1 |
| 20260505003021 | 65 | 80 | 1.0 | 2.0 | 0.00 | 0.00 | 0.00 | 45 | 1010.1 |
| 20260505002459 | 65 | 81 | 1.0 | 3.0 | 0.00 | 0.00 | 0.00 | 45 | 1010.0 |
| 20260505001935 | 65 | 81 | 0.0 | 2.0 | 0.00 | 0.00 | 0.00 | 45 | 1010.0 |
| 20260505001412 | 65 | 61 | 0.0 | 1.0 | 0.00 | 0.00 | 0.00 | 45 | 1010.1 |
| 20260505000851 | 66 | 61 | 1.0 | 4.0 | 0.00 | 0.00 | 0.00 | 44 | 1009.9 |
| 20260505000333 | 66 | 62 | 1.0 | 4.0 | 0.00 | 0.00 | 0.00 | 44 | 1009.9 |
| 20260504235807 | 66 | 70 | 1.0 | 4.0 | 0.00 | 0.00 | 0.00 | 43 | 1009.9 |
| 20260504235245 | 67 | 81 | 1.0 | 4.0 | 0.00 | 0.00 | 0.00 | 43 | 1009.9 |
| 20260504234746 | 67 | 77 | 1.0 | 4.0 | 0.00 | 0.00 | 0.00 | 43 | 1009.8 |
| 20260504234246 | 67 | 77 | 2.0 | 7.0 | 0.00 | 0.00 | 0.00 | 42 | 1009.6 |
| 20260504233729 | 68 | 56 | 3.0 | 7.0 | 0.00 | 0.00 | 0.00 | 42 | 1009.6 |
| 20260504233230 | 68 | 43 | 3.0 | 7.0 | 0.00 | 0.00 | 0.00 | 41 | 1009.5 |
| 20260504232726 | 68 | 51 | 3.0 | 8.0 | 0.00 | 0.00 | 0.00 | 41 | 1009.4 |
| 20260504232201 | 69 | 61 | 3.0 | 9.0 | 0.00 | 0.00 | 0.00 | 41 | 1009.4 |
| 20260504231635 | 69 | 58 | 4.0 | 12.0 | 0.00 | 0.00 | 0.00 | 40 | 1009.4 |
| 20260504231114 | 69 | 91 | 4.0 | 12.0 | 0.00 | 0.00 | 0.00 | 40 | 1009.4 |
| 20260504230557 | 69 | 58 | 4.0 | 10.0 | 0.00 | 0.00 | 0.00 | 40 | 1009.3 |
| 20260504230057 | 69 | 45 | 4.0 | 11.0 | 0.00 | 0.00 | 0.00 | 40 | 1009.3 |
| 20260504225559 | 69 | 63 | 4.0 | 11.0 | 0.00 | 0.00 | 0.00 | 39 | 1009.3 |
| 20260504225101 | 70 | 41 | 5.0 | 16.0 | 0.00 | 0.00 | 0.00 | 40 | 1009.3 |
| 20260504224531 | 70 | 56 | 5.0 | 16.0 | 0.00 | 0.00 | 0.00 | 39 | 1009.3 |
| 20260504224507 | 70 | 49 | 5.0 | 11.0 | 0.00 | 0.00 | 0.00 | 39 | 1009.3 |
| 20260504223501 | 70 | 65 | 5.0 | 11.0 | 0.00 | 0.00 | 0.00 | 39 | 1009.3 |
| 20260504223230 | 70 | 38 | 5.0 | 11.0 | 0.00 | 0.00 | 0.00 | 38 | 1009.3 |
| 20260504222429 | 71 | 90 | 5.0 | 13.0 | 0.00 | 0.00 | 0.00 | 38 | 1009.3 |
| 20260504222156 | 71 | 54 | 5.0 | 13.0 | 0.00 | 0.00 | 0.00 | 39 | 1009.3 |
| 20260504221425 | 71 | 70 | 4.0 | 10.0 | 0.00 | 0.00 | 0.00 | 39 | 1009.3 |
| 20260504220858 | 71 | 82 | 5.0 | 16.0 | 0.00 | 0.00 | 0.00 | 37 | 1009.3 |
| 20260504220349 | 71 | 59 | 5.0 | 16.0 | 0.00 | 0.00 | 0.00 | 38 | 1009.4 |
| 20260504215852 | 71 | 37 | 4.0 | 10.0 | 0.00 | 0.00 | 0.00 | 38 | 1009.4 |
| 20260504215617 | 71 | 67 | 5.0 | 14.0 | 0.00 | 0.00 | 0.00 | 36 | 1009.4 |
| 20260504214848 | 71 | 84 | 6.0 | 14.0 | 0.00 | 0.00 | 0.00 | 36 | 1009.5 |
| 20260504214346 | 72 | 64 | 6.0 | 13.0 | 0.00 | 0.00 | 0.00 | 38 | 1009.6 |
| 20260504213846 | 72 | 29 | 5.0 | 12.0 | 0.00 | 0.00 | 0.00 | 37 | 1009.5 |
| 20260504213617 | 72 | 53 | 4.0 | 9.0 | 0.00 | 0.00 | 0.00 | 37 | 1009.5 |
| 20260504212846 | 72 | 69 | 4.0 | 9.0 | 0.00 | 0.00 | 0.00 | 37 | 1009.6 |
| 20260504212319 | 72 | 77 | 5.0 | 11.0 | 0.00 | 0.00 | 0.00 | 37 | 1009.5 |
| 20260504211817 | 72 | 62 | 6.0 | 14.0 | 0.00 | 0.00 | 0.00 | 38 | 1009.6 |
| 20260504211321 | 72 | 93 | 6.0 | 14.0 | 0.00 | 0.00 | 0.00 | 37 | 1009.5 |
| 20260504210817 | 72 | 88 | 6.0 | 17.0 | 0.00 | 0.00 | 0.00 | 36 | 1009.6 |
| 20260504210318 | 72 | 39 | 6.0 | 17.0 | 0.00 | 0.00 | 0.00 | 36 | 1009.7 |
| 20260504210025 | 72 | 83 | 5.0 | 11.0 | 0.00 | 0.00 | 0.00 | 37 | 1009.7 |
| 20260504205252 | 72 | 79 | 5.0 | 8.0 | 0.00 | 0.00 | 0.00 | 37 | 1009.7 |
| 20260504205017 | 72 | 84 | 6.0 | 16.0 | 0.00 | 0.00 | 0.00 | 37 | 1009.7 |
| 20260504204243 | 71 | 65 | 6.0 | 16.0 | 0.00 | 0.00 | 0.00 | 37 | 1009.8 |
| 20260504203744 | 72 | 29 | 5.0 | 14.0 | 0.00 | 0.00 | 0.00 | 37 | 1009.7 |
| 20260504203513 | 72 | 89 | 5.0 | 12.0 | 0.00 | 0.00 | 0.00 | 38 | 1009.7 |
| 20260504203016 | 72 | 84 | 4.0 | 12.0 | 0.00 | 0.00 | 0.00 | 37 | 1009.7 |
| 20260504202213 | 72 | 47 | 4.0 | 12.0 | 0.00 | 0.00 | 0.00 | 38 | 1009.6 |
| 20260504201717 | 72 | 68 | 6.0 | 17.0 | 0.00 | 0.00 | 0.00 | 37 | 1009.8 |
| 20260504201440 | 72 | 89 | 5.0 | 17.0 | 0.00 | 0.00 | 0.00 | 37 | 1009.8 |
| 20260504200701 | 72 | 68 | 5.0 | 14.0 | 0.00 | 0.00 | 0.00 | 37 | 1009.8 |
| 20260504200159 | 72 | 70 | 6.0 | 14.0 | 0.00 | 0.00 | 0.00 | 35 | 1009.9 |
| 20260504195905 | 72 | 93 | 6.0 | 13.0 | 0.00 | 0.00 | 0.00 | 37 | 1010.0 |
| 20260504195130 | 72 | 79 | 6.0 | 13.0 | 0.00 | 0.00 | 0.00 | 34 | 1010.0 |
| 20260504194855 | 72 | 84 | 5.0 | 14.0 | 0.00 | 0.00 | 0.00 | 35 | 1009.9 |
| 20260504194352 | 72 | 56 | 4.0 | 14.0 | 0.00 | 0.00 | 0.00 | 37 | 1010.0 |
| 20260504193625 | 72 | 80 | 5.0 | 12.0 | 0.00 | 0.00 | 0.00 | 37 | 1010.1 |
| 20260504193109 | 72 | 67 | 6.0 | 16.0 | 0.00 | 0.00 | 0.00 | 38 | 1010.0 |
| 20260504192608 | 71 | 51 | 6.0 | 16.0 | 0.00 | 0.00 | 0.00 | 36 | 1010.3 |
| 20260504192111 | 71 | 80 | 5.0 | 14.0 | 0.00 | 0.00 | 0.00 | 38 | 1010.2 |
| 20260504191543 | 71 | 85 | 5.0 | 13.0 | 0.00 | 0.00 | 0.00 | 37 | 1010.2 |
| 20260504191026 | 71 | 93 | 5.0 | 13.0 | 0.00 | 0.00 | 0.00 | 34 | 1010.3 |
| 20260504190526 | 71 | 87 | 5.0 | 11.0 | 0.00 | 0.00 | 0.00 | 36 | 1010.6 |
| 20260504190027 | 72 | 45 | 5.0 | 13.0 | 0.00 | 0.00 | 0.00 | 38 | 1010.6 |
| 20260504185458 | 71 | 79 | 6.0 | 13.0 | 0.00 | 0.00 | 0.00 | 38 | 1010.7 |
| 20260504184931 | 71 | 70 | 6.0 | 18.0 | 0.00 | 0.00 | 0.00 | 38 | 1010.7 |
| 20260504184417 | 71 | 69 | 6.0 | 18.0 | 0.00 | 0.00 | 0.00 | 37 | 1010.7 |
| 20260504184145 | 71 | 70 | 6.0 | 14.0 | 0.00 | 0.00 | 0.00 | 36 | 1010.8 |
| 20260504183419 | 71 | 37 | 6.0 | 14.0 | 0.00 | 0.00 | 0.00 | 35 | 1010.8 |
| 20260504183124 | 71 | 35 | 6.0 | 12.0 | 0.00 | 0.00 | 0.00 | 38 | 1011.0 |
| 20260504182353 | 71 | 38 | 5.0 | 11.0 | 0.00 | 0.00 | 0.00 | 36 | 1011.0 |
| 20260504181851 | 71 | 88 | 7.0 | 18.0 | 0.00 | 0.00 | 0.00 | 37 | 1011.1 |
| 20260504181346 | 70 | 66 | 8.0 | 18.0 | 0.00 | 0.00 | 0.00 | 37 | 1011.1 |
| 20260504180831 | 70 | 81 | 6.0 | 16.0 | 0.00 | 0.00 | 0.00 | 37 | 1011.1 |
| 20260504180322 | 70 | 72 | 6.0 | 10.0 | 0.00 | 0.00 | 0.00 | 40 | 1011.2 |
| 20260504175805 | 70 | 67 | 6.0 | 14.0 | 0.00 | 0.00 | 0.00 | 36 | 1011.4 |
| 20260504175307 | 70 | 74 | 6.0 | 14.0 | 0.00 | 0.00 | 0.00 | 39 | 1011.3 |
| 20260504174802 | 69 | 56 | 7.0 | 14.0 | 0.00 | 0.00 | 0.00 | 38 | 1011.4 |
| 20260504174233 | 70 | 58 | 6.0 | 14.0 | 0.00 | 0.00 | 0.00 | 38 | 1011.5 |
| 20260504173724 | 70 | 98 | 5.0 | 13.0 | 0.00 | 0.00 | 0.00 | 36 | 1011.4 |
| 20260504173229 | 69 | 43 | 6.0 | 15.0 | 0.00 | 0.00 | 0.00 | 38 | 1011.5 |
| 20260504172713 | 69 | 25 | 7.0 | 15.0 | 0.00 | 0.00 | 0.00 | 40 | 1011.5 |
| 20260504172211 | 69 | 29 | 6.0 | 14.0 | 0.00 | 0.00 | 0.00 | 40 | 1011.5 |
| 20260504171651 | 68 | 60 | 7.0 | 16.0 | 0.00 | 0.00 | 0.00 | 38 | 1011.7 |
| 20260504171148 | 68 | 30 | 7.0 | 16.0 | 0.00 | 0.00 | 0.00 | 36 | 1011.8 |
| 20260504170646 | 69 | 29 | 6.0 | 12.0 | 0.00 | 0.00 | 0.00 | 39 | 1011.8 |
| 20260504170411 | 69 | 47 | 5.0 | 13.0 | 0.00 | 0.00 | 0.00 | 38 | 1011.7 |
| 20260504150656 | 65 | 58 | 7.0 | 12.0 | 0.00 | 0.00 | 0.00 | 42 | 1013.3 |
| 20260504150155 | 64 | 84 | 5.0 | 12.0 | 0.00 | 0.00 | 0.00 | 42 | 1013.3 |
| 20260504140940 | 61 | 96 | 6.0 | 14.0 | 0.00 | 0.00 | 0.00 | 51 | 1013.6 |
| 20260504140700 | 61 | 67 | 6.0 | 14.0 | 0.00 | 0.00 | 0.00 | 51 | 1013.6 |